Simultaneous Nadir Overpasses (SNOs) Predictions

Prediction of SNOs between GOES-15 and TERRA Satellite Orbit:

Table of predicted SNOs for the next 14.0 days since TLE Epoch: 1/21/2017
Index Date Time (GOES-15) GOES-15 Lat,Lon TERRA Lat,Lon Distance(km) Time Diff (sec)
1 01/21/2017 07:42:55 -0.02,-135.14 -0.57,-137.74 295.90 80
2 01/23/2017 07:28:04 -0.02,-135.19 0.05,-134.79 45.56 80
3 01/25/2017 07:15:54 -0.02,-135.24 0.68,-131.84 385.97 80
4 01/25/2017 19:39:50 0.02,-135.22 0.42,-137.00 202.76 80
5 01/27/2017 19:25:01 0.02,-135.26 -0.21,-134.06 136.55 80
6 01/28/2017 07:49:05 -0.03,-135.30 -0.88,-139.25 449.57 80
7 01/29/2017 19:12:53 0.03,-135.30 -0.85,-131.12 474.94 80
8 01/30/2017 07:36:57 -0.03,-135.34 -0.25,-136.31 111.38 80
9 02/01/2017 07:22:11 -0.03,-135.36 0.40,-133.38 225.84 80
10 02/01/2017 19:46:06 0.04,-135.34 0.75,-138.53 363.79 80
11 02/03/2017 19:34:00 0.04,-135.36 0.10,-135.60 28.06 80




NCC Satellite Simultaneous Nadir Overpasses (SNOs) Prediction Service
